Miscellaneous Local Product
Issued by NWS Hastings, NE

Home | Current Version | Previous Version | Graphics & Text | Print | Product List | Glossary On
Versions: 1 2 3 4 5 6 7 8 9 10 11 12 13 14 15 16 17 18 19 20 21 22 23 24 25 26 27 28 29 30 31 32 33 34 35 36 37 38 39 40 41 42 43 44 45 46 47 48 49 50
000
AXUS43 KGID 041302
MISGRI

GID CWA HOURLY WEATHER ROUNDUP
NATIONAL WEATHER SERVICE HASTINGS NE
800 AM CDT FRI SEP 04 2015

NOTE: "FAIR" INDICATES FEW OR NO CLOUDS BELOW 12,000 FEET WITH NO
SIGNIFICANT WEATHER AND/OR OBSTRUCTIONS TO VISIBILITY.

...SOUTH CENTRAL NEBRASKA...

CITY           SKY/WX    TMP DP  RH WIND       PRES   REMARKS
GRAND ISLAND   CLOUDY    74  64  71 SE21G26   29.86R
HASTINGS       CLOUDY    74  64  71 SE16      29.86R
KEARNEY        PTCLDY    70  61  73 SE9       29.84R
ORD            CLOUDY    73  63  70 SE10      29.82R
YORK           CLOUDY    73  66  78 S8        29.90R
AURORA         CLOUDY    74  67  78 S15       29.87S
LEXINGTON      CLEAR     73  61  66 SE15      29.82R
HOLDREGE       CLEAR     72  59  64 S12       29.84R
HEBRON         CLOUDY    71  67  87 E3        29.92S

...NEBRASKA PANHANDLE...

CITY           SKY/WX    TMP DP  RH WIND       PRES   REMARKS
CHADRON        CLEAR     58  52  80 CALM      29.84R
ALLIANCE       CLEAR     54  50  86 CALM      29.88R
SCOTTSBLUFF    CLEAR     55  52  89 CALM      29.90R
SIDNEY         CLEAR     53  49  86 W3        29.93R

...WESTERN AND NORTH CENTRAL NEBRASKA...

CITY           SKY/WX    TMP DP  RH WIND       PRES   REMARKS
VALENTINE      MOCLDY    65  62  90 SW5       29.80S
AINSWORTH      CLOUDY    69  64  83 SE5       29.81F
ONEILL         CLOUDY    72  66  81 E6        29.84R
BROKEN BOW     PTCLDY    69  62  78 SE6       29.83R
IMPERIAL       CLEAR     62  56  80 NW8       29.87R
NORTH PLATTE   PTCLDY    62  60  93 E5        29.83R
MCCOOK         PTCLDY    70  58  65 SW5       29.82R

...EASTERN NEBRASKA...

CITY           SKY/WX    TMP DP  RH WIND       PRES   REMARKS
NORFOLK        TSTM      73  66  78 SE13      29.85R
SO SIOUX CITY  CLOUDY    72  66  81 SE10      29.88R
TEKAMAH        LGT RAIN  72  70  93 SE5       29.91R
COLUMBUS       CLOUDY    72  63  73 SE9G17    29.88S
ALBION         LGT RAIN  72  65  79 SE12G17   29.86R
OMAHA EPPLEY   CLOUDY    74  68  81 SE12      29.93R
OFFUTT AFB     CLOUDY    72  69  90 E3        29.93R
MILLARD        CLOUDY    74  69  85 SE3       29.92R
LINCOLN        CLOUDY    75  68  78 SE5       29.92R
NEBRASKA CITY  PTSUNNY   72  69  90 S6        29.94R
BEATRICE       LGT RAIN  72  68  87 S9        29.93R
FALLS CITY     SUNNY     73  68  84 S6        29.94R

...NORTHERN KANSAS...

CITY           SKY/WX    TMP DP  RH WIND       PRES   REMARKS
GOODLAND       CLEAR     63  53  70 W8        29.89R
HILL CITY      CLEAR     72  59  63 VRB3      29.85R
NORTON         SUNNY     73  55  53 SE12G17   29.82R
PHILLIPSBURG   CLEAR     75  63  64 E9        29.84R
SMITH CENTER   CLEAR     70  63  78 E12       29.87R
HAYS           CLEAR     73  57  56 S20G25    29.85S
RUSSELL        PTCLDY    75  61  61 S21G29    29.85R
CONCORDIA      PTSUNNY   75  64  68 SE12      29.90R
SALINA         SUNNY     76  63  64 S12       29.91R
TOPEKA         MOSUNNY   74  68  81 CALM      29.96R



USA.gov is the U.S. government's official web portal to all federal, state and local government web resources and services.